Location: Codford Saint Peter
(51.1597°N, 2.0531°W)
Time: 00:48:48
(UTC+00:00)

Cosmos 1634 Rocket - Visible Passes

Search period start: 24 January 2021 00:00
Search period end: 03 February 2021 00:00
Orbit: 959 x 993 km, 82.9° (Epoch: 23 January)

Date Brightness Start Highest point End Pass type
(mag) Time Alt. Az. Time Alt. Az. Time Alt. Az.
24 Jan 5.0 05:31:12 10° SSE 05:37:02 46° E 05:42:55 10° NNE visible
24 Jan 4.5 07:16:58 10° SW 07:22:35 36° WNW 07:28:17 10° N visible
24 Jan 5.8 18:06:44 10° NNW 18:12:14 34° W 18:17:46 10° SSW visible
25 Jan 6.7 04:14:52 10° ESE 04:18:06 15° ENE 04:21:21 10° NE visible
25 Jan 4.1 05:56:17 10° S 06:02:26 77° E 06:08:38 10° NNE visible
25 Jan 6.6 18:32:57 10° NW 18:37:22 21° W 18:41:48 10° SW visible
26 Jan 6.1 04:38:17 10° SE 04:43:08 25° E 04:48:00 10° NNE visible
26 Jan 3.9 06:21:52 10° SSW 06:27:59 67° WNW 06:34:12 10° N visible
26 Jan 7.0 19:00:10 10° NW 19:02:20 12° WNW 19:04:30 10° W visible
27 Jan 5.2 05:02:37 10° SSE 05:08:19 41° E 05:14:03 10° NNE visible
27 Jan 4.3 06:47:58 10° SW 06:53:44 41° WNW 06:59:34 10° N visible
27 Jan 5.6 17:37:51 10° NNW 17:43:33 38° W 17:49:16 10° SSW visible
28 Jan 6.8 03:46:55 10° E 03:49:29 13° ENE 03:52:03 10° NE visible
28 Jan 4.3 05:27:34 10° S 05:33:40 68° E 05:39:50 10° NNE visible
28 Jan 6.5 18:03:57 10° NNW 18:08:43 23° W 18:13:30 10° SW visible
29 Jan 6.2 04:09:55 10° SE 04:14:28 22° E 04:19:02 10° NNE visible
29 Jan 3.9 05:53:02 10° SSW 05:59:12 75° WNW 06:05:26 10° N visible
29 Jan 6.9 18:30:45 10° NW 18:33:44 14° WNW 18:36:43 10° WSW visible
30 Jan 5.4 04:34:04 10° SSE 04:39:37 36° E 04:45:12 10° NNE visible
30 Jan 4.2 06:18:59 10° SW 06:24:53 46° WNW 06:30:52 10° N visible
31 Jan 6.9 03:19:17 10° E 03:20:53 11° ENE 03:22:28 10° ENE visible
31 Jan 4.5 04:58:53 10° S 05:04:55 60° E 05:11:02 10° NNE visible
31 Jan 4.7 06:45:29 10° SW 06:50:46 29° WNW 06:56:06 10° N visible
31 Jan 6.3 17:35:00 10° NNW 17:40:03 26° W 17:45:09 10° SW visible
01 Feb 6.3 03:41:37 10° ESE 03:45:49 19° ENE 03:50:02 10° NE visible
01 Feb 3.9 05:24:13 10° S 05:30:24 84° W 05:36:40 10° N visible
01 Feb 6.7 18:01:31 10° NW 18:05:07 16° WNW 18:08:42 10° WSW visible
02 Feb 5.6 04:05:34 10° SE 04:10:55 32° E 04:16:18 10° NNE visible
02 Feb 4.1 05:50:03 10° SSW 05:56:03 52° WNW 06:02:09 10° N visible
